Вернуться в каталог

STARLINK-4582

АктивенСвязьVLEO
NORAD 53569·PAYLOAD·🇺🇸 United States

Запущен Aug 19, 2022 с Cape Canaveral Space Force Station

Loading…

Ближайшие Пролёты (ближайшие 24 часа)

TLE

СвежийSource: CelesTrak SupGP

Эпоха: Sep 15, 2026, 02:17 UTC

1 53569C 22101AU  26258.09562500 -.00027748  00000+0 -81975-3 0  2584
2 53569  53.1569 269.1051 0001154  84.2275 152.5245 15.34407715    14

Отслеживайте STARLINK-4582 в реальном времени с AllMySat

Download on the App Store